Location: Bathurst
(33.4193°S, 149.5775°E)
Time: 04:58:05
(UTC+10:00)

Courier 1B Rocket - All Passes

Search period start: 19 June 2021 00:00
Search period end: 29 June 2021 00:00
Orbit: 920 x 1202 km, 28.2° (Epoch: 18 June)

Date Brightness Start Highest point End Pass type
(mag) Time Alt. Az. Time Alt. Az. Time Alt. Az.
19 Jun - 04:33:52 10° N 04:36:42 13° NNE 04:39:37 10° ENE visible
19 Jun - 06:23:06 10° NW 06:29:26 35° NNE 06:36:11 10° E visible
19 Jun - 08:15:29 10° WNW 08:22:43 57° N 08:30:21 10° E daylight
19 Jun - 10:08:49 10° W 10:16:18 56° N 10:23:58 10° ENE daylight
19 Jun - 12:02:47 10° W 12:09:42 34° NNW 12:16:34 10° NE daylight
19 Jun - 13:59:22 10° WNW 14:02:39 13° NNW 14:05:55 10° N daylight
20 Jun - 05:22:52 10° NNW 05:28:28 26° NNE 05:34:24 10° E visible
20 Jun - 07:14:36 10° WNW 07:21:32 51° NNE 07:28:56 10° E daylight
20 Jun - 09:07:40 10° W 09:15:03 59° N 09:22:44 10° ENE daylight
20 Jun - 11:01:21 10° W 11:08:33 42° NNW 11:15:50 10° NE daylight
20 Jun - 12:56:25 10° WNW 13:01:40 19° NNW 13:06:52 10° NNE daylight
21 Jun - 04:23:06 10° NNW 04:27:36 19° NNE 04:32:17 10° ENE visible
21 Jun - 06:13:55 10° NW 06:20:27 43° NNE 06:27:27 10° E visible
21 Jun - 08:06:38 10° WNW 08:13:49 59° N 08:21:25 10° E daylight
21 Jun - 10:00:04 10° W 10:07:21 50° NNW 10:14:51 10° ENE daylight
21 Jun - 11:54:23 10° WNW 12:00:36 26° NNW 12:06:51 10° NNE daylight
22 Jun - 03:24:25 10° N 03:26:47 12° NNE 03:29:14 10° NE visible
22 Jun - 05:13:26 10° NW 05:19:27 34° NNE 05:25:53 10° E visible
22 Jun - 07:05:43 10° WNW 07:12:38 56° N 07:20:03 10° E daylight
22 Jun - 08:58:55 10° W 09:06:08 55° N 09:13:42 10° ENE daylight
22 Jun - 10:52:46 10° W 10:59:30 34° NNW 11:06:23 10° NE daylight
22 Jun - 12:49:16 10° WNW 12:52:30 13° NNW 12:55:45 10° N daylight
23 Jun - 04:13:15 10° NNW 04:18:33 25° NNE 04:24:09 10° ENE visible
23 Jun - 06:04:55 10° WNW 06:11:31 50° NNE 06:18:38 10° E visible
23 Jun - 07:57:53 10° W 08:04:56 58° N 08:12:27 10° ENE daylight
23 Jun - 09:51:25 10° W 09:58:22 41° NNW 10:05:35 10° NE daylight
23 Jun - 11:46:24 10° WNW 11:51:29 19° NNW 11:56:38 10° NNE daylight
24 Jun - 03:13:32 10° NNW 03:17:44 18° NNE 03:22:05 10° ENE visible
24 Jun - 05:04:16 10° NW 05:10:30 42° NNE 05:17:10 10° E visible
24 Jun - 06:56:55 10° WNW 07:03:46 58° N 07:11:07 10° ENE daylight
24 Jun - 08:50:14 10° W 08:57:12 48° NNW 09:04:34 10° ENE daylight
24 Jun - 10:44:26 10° WNW 10:50:26 26° NNW 10:56:35 10° NNE daylight
25 Jun - 02:14:57 10° NNE 02:16:58 11° NNE 02:18:59 10° NE visible
25 Jun - 04:03:49 10° NW 04:09:34 33° NNE 04:15:40 10° E visible
25 Jun - 05:56:04 10° WNW 06:02:39 55° N 06:09:45 10° E visible
25 Jun - 07:49:10 10° W 07:56:02 54° N 08:03:24 10° ENE daylight
25 Jun - 09:42:54 10° W 09:49:21 33° NNW 09:56:04 10° NE daylight
25 Jun - 11:39:26 10° NW 11:42:23 12° NNW 11:45:20 10° N daylight
26 Jun - 03:03:40 10° NNW 03:08:43 25° NNE 03:14:01 10° ENE visible
26 Jun - 04:55:19 10° WNW 05:01:37 49° NNE 05:08:23 10° E visible
26 Jun - 06:48:12 10° W 06:54:55 57° N 07:02:08 10° ENE daylight
26 Jun - 08:41:38 10° W 08:48:15 40° NNW 08:55:16 10° NE daylight
26 Jun - 10:36:33 10° WNW 10:41:21 18° NNW 10:46:17 10° NNE daylight
27 Jun - 02:03:56 10° NNW 02:07:57 17° NNE 02:12:02 10° ENE visible
27 Jun - 03:54:41 10° NW 04:00:40 41° NNE 04:07:00 10° E visible
27 Jun - 05:47:18 10° WNW 05:53:49 57° N 06:00:51 10° ENE visible
27 Jun - 07:40:32 10° W 07:47:09 47° NNW 07:54:14 10° ENE daylight
27 Jun - 09:34:40 10° WNW 09:40:20 24° NNW 09:46:13 10° NNE daylight
28 Jun - 01:05:21 10° NNE 01:07:11 11° NNE 01:09:01 10° NE night (unlit)
28 Jun - 02:54:15 10° NW 02:59:47 32° NNE 03:05:34 10° E visible
28 Jun - 04:46:29 10° WNW 04:52:47 54° N 04:59:33 10° E visible
28 Jun - 06:39:32 10° W 06:46:04 52° N 06:53:06 10° ENE visible
28 Jun - 08:33:12 10° W 08:39:17 31° NNW 08:45:43 10° NE daylight
28 Jun - 10:29:57 10° NW 10:32:17 12° NNW 10:34:38 10° NNW daylight
